Tracking 35331 objects as of 14-Sep-2026
HD Live streaming from Space Station
objects crossing your sky now

STARLINK-11649

Track STARLINK-11649 now!
10-day predictions
STARLINK-11649 is classified as:


NORAD ID: 64069
Int'l Code: 2025-107F
Launch date: May 21, 2025
Source: United States (US)
Launch site: AIR FORCE EASTERN TEST RANGE (AFETR)
Your satellite tracking list
Your tracking list is empty




NASA's NSSDC Master Catalog

Two Line Element Set (TLE):
1 64069U 25107F   26256.72070267  .00155848  00000-0  11950-2 0  9991
2 64069  43.0015  45.4526 0001815 280.5004  79.5659 15.70847109 76860
Source of the keplerian elements: AFSPC